Regional Weather Roundup
Issued by NWS

Home | Current Version | Previous Version | Graphics & Text | Print | Product List | Glossary On
Versions: 1 2 3 4 5 6 7 8 9 10 11 12 13 14 15 16 17 18 19 20 21 22 23 24 25 26 27 28 29 30 31 32 33 34 35 36 37 38 39 40 41 42 43 44 45 46 47 48 49 50
000
ASUS43 KMPX 301501
RWRMN
WEATHER ROUNDUP FOR MINNESOTA
NATIONAL WEATHER SERVICE TWIN CITIES/CHANHASSEN MN
1000 AM CDT TUE SEP 30 2014


NOTE: "FAIR" INDICATES FEW OR NO CLOUDS BELOW 12,000 FEET WITH NO
SIGNIFICANT WEATHER AND/OR OBSTRUCTIONS TO VISIBILITY. N/A MEANS
CURRENT SKY AND/OR WEATHER CONDITIONS ARE NOT AVAILABLE.

MNZ060>063-068>070-301600-
   Twin Cities Metro

CITY           SKY/WX    TMP DP  RH WIND       PRES   REMARKS
TWIN CITIES    CLOUDY    44  39  82 E14       30.05F
ST PAUL        CLOUDY    45  40  82 E7        30.08F
CRYSTAL        CLOUDY    45  38  76 E12       30.04F
BLAINE         CLOUDY    45  43  93 E12       30.07F
LAKEVILLE      CLOUDY    43  39  87 E14       30.04F
EDEN PRAIRIE   CLOUDY    45  40  82 E14       30.02F
SOUTH ST PAUL  CLOUDY    45  39  81 E7        30.07S
LAKE ELMO      CLOUDY    43  41  93 E9        30.08F
$$
MNZ001>005-007-008-013>017-022>024-027-028-301600-
   Northwest Minnesota

CITY           SKY/WX    TMP DP  RH WIND       PRES   REMARKS
BEMIDJI        CLOUDY    44  41  89 SE12      30.01F
HALLOCK        PTSUNNY   48  45  87 SE17      29.94F
ROSEAU         CLOUDY    46  41  81 SE12G18   30.00F
WARROAD        CLOUDY    45  41  87 SE14      30.02S
THIEF RVR FALL CLOUDY    46  43  87 E15       29.96F
CROOKSTON      MOSUNNY   46  43  87 SE16      29.94F
FOSSTON        MOSUNNY   46  43  87 E8        29.96F
DETROIT LAKES  CLOUDY    45  41  87 SE17G23   29.95S
PARK RAPIDS    CLOUDY    42  40  92 E16       30.00F
MAHNOMEN       PTSUNNY   44  40  85 SE13      29.94F
$$
MNZ006-009>011-018-025>026-301600-
   North Central Minnesota

CITY           SKY/WX    TMP DP  RH WIND       PRES   REMARKS
BAUDETTE       CLOUDY    43  39  86 SE9G20    30.04S
FLAG ISLAND    CLOUDY    45  43  93 SE14      30.02F
INTL FALLS     CLOUDY    42  39  89 SE8       30.08F
WASKISH        CLOUDY    43  41  93 E3        30.04S
BIG FORK       CLOUDY    43  39  87 SE12      30.07F
LONGVILLE      CLOUDY    41  39  93 SE6       30.05S
GRAND RAPIDS   CLOUDY    41  37  87 SE6       30.07S
CRANE LAKE     CLOUDY    41  39  93 CALM      30.12F
ORR            CLOUDY    39  36  87 SE7       30.07F
COOK           CLOUDY    39  37  93 SE6       30.10F
WALKER         CLOUDY    41  39  90 SE3       30.03F
$$
MNZ012-019>021-037-301600-
   Northeast Minnesota

CITY           SKY/WX    TMP DP  RH WIND       PRES   REMARKS
DULUTH         CLOUDY    44  39  82 E15       30.09F
ELY            CLOUDY    39  37  93 SE10      30.12F
HIBBING        CLOUDY    43  38  82 E10       30.09F
EVELETH        CLOUDY    43  39  87 E8        30.11S
DULUTH HARBOR  CLOUDY    46  43  87 E14G21    30.13S
TWO HARBORS    CLOUDY    43  37  81 E9G17     30.10F
SILVER BAY     CLOUDY    43  41  93 E12       30.12S
GRAND MARAIS     N/A     47  38  71 E7        30.17S
G MARAIS ARPRT PTSUNNY   43  34  70 E5        30.14F
$$
MNZ029>031-032-039>041-046>048-054>057-064-301600-
   West Central Minnesota

CITY           SKY/WX    TMP DP  RH WIND       PRES   REMARKS
FERGUS FALLS   MOSUNNY   46  39  76 SE16G22   29.93F
WHEATON        CLOUDY    45  41  87 SE16G28   29.91F
MORRIS         MOSUNNY   46  43  87 E22G30    29.91F
ALEXANDRIA     CLOUDY    42  41  96 E16G23    29.98S
ELBOW LAKE     CLOUDY    44  42  90 E15G24    29.92F
WADENA         CLOUDY    41  39  93 E15       29.98F
GLENWOOD       CLOUDY    43  41  93 E16       29.97F FOG
APPLETON       CLOUDY    48  43  81 E18G25    29.91F
BENSON         CLOUDY    46  43  87 SE15G21   29.95F
ORTONVILLE     CLOUDY    46  43  87 SE14G24   29.90F
MADISON        PTSUNNY   50  45  81 SE18G24   29.91F
WILLMAR        CLOUDY    46  43  87 E18       29.98F
$$
MNZ033>034-036-042>043-049>051-058-059-301600-
   Central Minnesota

CITY           SKY/WX    TMP DP  RH WIND       PRES   REMARKS
ST CLOUD       CLOUDY    45  40  82 E12G17    30.03F
SAUK CENTRE    CLOUDY    41  41  99 E10G18    29.99S
PAYNESVILLE    CLOUDY    41  39  92 NE13G22   30.01S
AITKIN         CLOUDY    45  39  81 SE6       30.06S
PINE RIVER     CLOUDY    43  39  87 E12       30.06F
BRAINERD       CLOUDY    43  41  93 SE9G16    30.04F
STAPLES        CLOUDY    41  39  93 E9        30.00F
LONG PRAIRIE   CLOUDY    39  39 100 E8G18     30.01S FOG
LITTLE FALLS   CLOUDY    41  37  87 E12G18    30.02F
LITCHFIELD     CLOUDY    46  45  93 E14       30.01S
BUFFALO        CLOUDY    44  39  84 E12       30.03F
MAPLE LAKE     CLOUDY    44  42  91 E13       30.03F
$$
MNZ037-044-045-052-053-301600-
   East Central Minnesota

CITY           SKY/WX    TMP DP  RH WIND       PRES   REMARKS
PRINCETON      CLOUDY    45  39  81 E9        30.06F
MORA           CLOUDY    41  37  87 SE7       30.10S
CAMBRIDGE      CLOUDY    45  36  70 E7        30.06F
RUSH CITY      LGT RAIN  43  39  88 E5        30.09S
MOOSE LAKE     CLOUDY    41  37  87 E6        30.08S
HINCKLEY       CLOUDY    41  39  93 E6        30.10S
CLOQUET        CLOUDY    43  39  87 E12G20    30.09S
MCGREGOR       CLOUDY    41  39  93 E8        30.08F
$$
MNZ071>073-080-081-089-090-097-098-301600-
   Southwest Minnesota

CITY           SKY/WX    TMP DP  RH WIND       PRES   REMARKS
MONTEVIDEO     CLOUDY    45  43  93 SE17      29.94F
GRANITE FALLS  CLOUDY    44  42  92 E13G24    29.95F
CANBY          CLOUDY    47  45  90 SE15G23   29.90F
MARSHALL       CLOUDY    46  41  81 SE15G23   29.91R
REDWOOD FALLS  CLOUDY    45  42  89 E13G22    29.97F
OLIVIA         CLOUDY    43  41  93 E15G21    29.97F
PIPESTONE      CLOUDY    52  50  93 SE20G25   29.86F
WINDOM         CLOUDY    48  48 100 E10G17    29.95S FOG
WORTHINGTON    CLOUDY    52  48  87 SE15      29.93S VSB 3/4
JACKSON        FOG       50  48  93 SE14      29.95S VSB 1/2
TRACY          CLOUDY    47  46  95 SE14      29.93F
SLAYTON        CLOUDY    49  48  99 E10G21    29.92F FOG
$$
MNZ065>067-074>077-082>085-091>093-301600-
   South Central Minnesota

CITY           SKY/WX    TMP DP  RH WIND       PRES   REMARKS
MANKATO        CLOUDY    45  39  81 SE14G20   30.02S
NEW ULM        MOSUNNY   46  45  93 E13G20    29.98F
ST JAMES       CLOUDY    48  45  87 E14       29.99S
FAIRMONT       CLOUDY    50  45  81 E14       29.97F
GLENCOE        CLOUDY    45  39  81 E15       30.01S
FARIBAULT      CLOUDY    46  39  76 E9        30.04F
OWATONNA       CLOUDY    45  43  93 E10       30.04R FOG
WASECA         CLOUDY    43  37  81 E14       30.04S
ALBERT LEA     CLOUDY    46  45  93 E15       30.01F
$$
MNZ078>079-086>088-094>096-301600-
   Southeast Minnesota

CITY           SKY/WX    TMP DP  RH WIND       PRES   REMARKS
ROCHESTER      CLOUDY    44  43  96 E13       30.05F
RED WING       CLOUDY    46  39  76 E6        30.07S
STANTON        CLOUDY    45  40  83 E9        30.03F
DODGE CENTER   CLOUDY    45  43  93 E15       30.03F
WINONA         CLOUDY    46  41  81 E7        30.09F
AUSTIN         CLOUDY    45  45 100 E9        30.03R
PRESTON        CLOUDY    43  42  95 E7        30.06S FOG
$$
ABBREVIATIONS USED IN REMARKS
   TC - TEMPERATURES IN CELSIUS
  WCI - WIND CHILL INDEX
   HX - HEAT INDEX
  VSB - VISIBILITY
$$



USA.gov is the U.S. government's official web portal to all federal, state and local government web resources and services.